FW7376 Weather Reports


time (UTC)temp
F
wind
direction
speed
knots
gust
knots
rain 1hr
in
rain 24hr
in
rain mn
in
humidity
%
barometer
mb
20260509174105 61 90 0.9 1.7 0.00 0.08 0.08 70 1012.3
20260509173605 61 88 0.9 2.6 0.00 0.08 0.08 70 1012.4
20260509172605 60 88 1.7 5.2 0.00 0.08 0.08 72 1012.6
20260509172105 60 58 0.9 4.3 0.00 0.08 0.08 71 1012.7
20260509171606 59 25 2.6 2.6 0.00 0.08 0.08 73 1012.7
20260509170605 59 323 2.6 4.3 0.00 0.08 0.08 74 1012.7
20260509165106 59 83 1.7 2.6 0.00 0.08 0.08 73 1012.7
20260509162605 59 90 0.0 1.7 0.00 0.08 0.08 74 1012.8
20260509155606 58 143 1.7 2.6 0.00 0.08 0.08 74 1012.9
20260509153105 58 145 2.6 4.3 0.00 0.08 0.08 77 1012.9
20260509152606 57 96 1.7 2.6 0.00 0.08 0.08 78 1013.0
20260509151105 56 97 0.9 5.2 0.00 0.08 0.08 82 1013.0
20260509145605 55 84 0.9 1.7 0.01 0.08 0.08 84 1013.0
20260509142105 54 122 0.0 0.0 0.06 0.08 0.08 85 1013.1
20260509134605 54 37 1.7 2.6 0.06 0.06 0.06 83 1013.0
20260509134105 55 37 0.0 1.7 0.05 0.05 0.05 83 1013.1
20260509132604 55 12 1.7 2.6 0.03 0.03 0.03 81 1012.9
20260509131105 55 5 0.0 0.9 0.02 0.02 0.02 80 1013.2
20260509125605 55 5 0.0 1.7 0.01 0.01 0.01 77 1013.1
20260509125106 55 5 0.9 1.7 0.01 0.01 0.01 78 1013.1
20260509123604 55 5 0.9 1.7 0.00 0.00 0.00 76 1013.2
20260509122105 55 347 0.9 2.6 0.00 0.00 0.00 76 1013.1
20260509121605 55 345 0.9 1.7 0.00 0.00 0.00 75 1013.1
20260509121105 55 344 0.9 2.6 0.00 0.00 0.00 75 1013.1
20260509115604 54 343 0.0 1.7 0.00 0.00 0.00 75 1013.3
20260509115104 54 344 1.7 2.6 0.00 0.00 0.00 75 1013.4
20260509114105 54 344 0.9 2.6 0.00 0.00 0.00 75 1013.2
20260509113104 54 344 0.9 1.7 0.00 0.00 0.00 74 1013.1
20260509112104 54 344 0.0 1.7 0.00 0.00 0.00 70 1013.2
20260509110604 55 344 0.0 0.9 0.00 0.00 0.00 68 1013.1
20260509105105 55 344 0.9 2.6 0.00 0.00 0.00 62 1012.8
20260509104604 56 336 2.6 2.6 0.00 0.00 0.00 60 1012.8
20260509102104 56 182 1.7 5.2 0.00 0.00 0.00 56 1012.2
20260509101105 56 194 4.3 7.8 0.00 0.00 0.00 55 1012.0
20260509100105 56 187 5.2 10.4 0.00 0.00 0.00 55 1012.0
20260509094104 56 189 5.2 10.4 0.00 0.00 0.00 56 1012.1
20260509092105 56 188 5.2 8.7 0.00 0.00 0.00 54 1012.2
20260509091605 56 168 4.3 10.4 0.00 0.00 0.00 54 1012.2
20260509091105 57 162 4.3 7.0 0.00 0.00 0.00 54 1012.2
20260509090104 57 167 1.7 4.3 0.00 0.00 0.00 54 1012.2
20260509085605 57 167 2.6 4.3 0.00 0.00 0.00 54 1012.2
20260509084605 58 233 1.7 2.6 0.00 0.00 0.00 52 1012.2
20260509084105 58 242 1.7 2.6 0.00 0.00 0.00 52 1012.3
20260509083105 58 235 1.7 5.2 0.00 0.00 0.00 51 1012.3
20260509082604 58 240 0.9 2.6 0.00 0.00 0.00 51 1012.3
20260509082104 58 240 0.9 2.6 0.00 0.00 0.00 50 1012.2
20260509081605 59 240 1.7 8.7 0.00 0.00 0.00 50 1012.3
20260509075104 59 234 1.7 7.0 0.00 0.00 0.00 49 1012.4
20260509072105 59 230 5.2 10.4 0.00 0.00 0.00 48 1012.4
20260509071605 59 251 3.5 7.8 0.00 0.00 0.00 48 1012.5
20260509063604 58 180 3.5 7.0 0.00 0.00 0.00 51 1012.5
20260509060604 58 183 2.6 4.3 0.00 0.00 0.00 50 1012.9
20260509060105 59 178 1.7 2.6 0.00 0.00 0.00 50 1012.9
20260509055105 59 203 3.5 7.0 0.00 0.00 0.00 49 1012.9
20260509053605 59 174 4.3 6.1 0.00 0.00 0.00 48 1012.9
20260509053104 59 202 4.3 8.7 0.00 0.00 0.00 48 1012.9
20260509051604 60 195 6.1 11.3 0.00 0.00 0.00 47 1012.9
20260509051104 60 185 4.3 10.4 0.00 0.00 0.00 46 1012.8
20260509050604 60 178 6.1 12.2 0.00 0.00 0.00 46 1012.8
20260509045605 60 183 6.1 11.3 0.00 0.00 0.00 46 1012.8
20260509045104 60 188 4.3 7.0 0.00 0.00 0.00 46 1012.8
20260509043604 60 150 4.3 7.0 0.00 0.00 0.00 46 1013.2
20260509040604 60 148 3.5 7.0 0.00 0.00 0.00 46 1013.3
20260509040105 59 163 5.2 8.7 0.00 0.00 0.00 46 1013.4
20260509035605 59 182 2.6 8.7 0.00 0.00 0.00 46 1013.4
20260509034104 59 149 4.3 6.1 0.00 0.00 0.00 47 1013.4
20260509033604 59 156 4.3 6.1 0.00 0.00 0.00 47 1013.4
20260509031105 59 155 0.9 2.6 0.00 0.00 0.00 48 1013.6
20260509025605 59 166 2.6 5.2 0.00 0.00 0.00 46 1013.7
20260509024604 58 141 2.6 6.1 0.00 0.00 0.00 48 1013.7
20260509024104 58 139 4.3 7.8 0.00 0.00 0.00 50 1013.7
20260509023604 57 140 4.3 7.0 0.00 0.00 0.00 54 1013.8
20260509020604 56 323 0.9 1.7 0.00 0.00 0.00 58 1014.0
20260509015604 56 323 0.9 2.6 0.00 0.00 0.00 59 1013.9
20260509015105 56 305 1.7 2.6 0.00 0.00 0.00 59 1013.8
20260509014104 56 305 1.7 2.6 0.00 0.00 0.00 60 1013.7
20260509013604 56 305 1.7 2.6 0.00 0.00 0.00 59 1013.6
20260509013104 56 305 0.9 2.6 0.00 0.00 0.00 61 1013.6
20260509012604 56 305 1.7 2.6 0.00 0.00 0.00 61 1013.6
20260509010605 56 302 0.9 2.6 0.00 0.00 0.00 61 1013.8
20260509004606 56 304 1.7 4.3 0.00 0.00 0.00 59 1013.7
20260509003105 57 294 1.7 2.6 0.00 0.00 0.00 57 1013.6
20260509002606 58 300 1.7 2.6 0.00 0.00 0.00 56 1013.5
20260509002105 59 298 1.7 2.6 0.00 0.00 0.00 55 1013.5
20260509001606 60 297 0.9 2.6 0.00 0.00 0.00 53 1013.5
20260509001106 61 301 1.7 2.6 0.00 0.00 0.00 50 1013.6
20260509000106 62 303 0.9 1.7 0.00 0.00 0.00 47 1013.5
20260508234606 64 303 0.0 1.7 0.00 0.00 0.00 43 1013.2
20260508234105 65 303 0.9 2.6 0.00 0.00 0.00 41 1013.1
20260508233605 64 303 0.9 1.7 0.00 0.00 0.00 41 1013.1
20260508232605 64 303 1.7 2.6 0.00 0.00 0.00 41 1013.1
20260508231606 63 302 0.9 2.6 0.00 0.00 0.00 42 1013.3
20260508230106 63 302 1.7 2.6 0.00 0.00 0.00 42 1013.2
20260508225105 63 302 1.7 2.6 0.00 0.00 0.00 41 1013.3
20260508224605 63 302 2.6 4.3 0.00 0.00 0.00 41 1013.3
20260508224105 63 301 1.7 2.6 0.00 0.00 0.00 40 1013.2
20260508223105 63 302 2.6 7.0 0.00 0.00 0.00 41 1013.3
20260508222606 63 314 1.7 2.6 0.00 0.00 0.00 43 1013.3
20260508214605 64 305 4.3 10.4 0.00 0.00 0.00 39 1013.3
20260508213606 64 305 4.3 11.3 0.00 0.00 0.00 38 1013.3
20260508211605 64 281 4.3 11.3 0.00 0.00 0.00 37 1013.3
20260508211106 64 308 6.1 11.3 0.00 0.00 0.00 38 1013.3
20260508210106 64 303 4.3 8.7 0.00 0.00 0.00 38 1013.2
20260508205106 64 307 2.6 7.0 0.00 0.00 0.00 37 1013.1
20260508204106 64 313 4.3 7.0 0.00 0.00 0.00 37 1013.2
20260508203605 64 300 2.6 10.4 0.00 0.00 0.00 36 1013.3
20260508200605 66 310 2.6 7.8 0.00 0.00 0.00 34 1013.5
20260508200106 66 307 6.1 12.2 0.00 0.00 0.00 34 1013.5
20260508195605 67 308 6.1 10.4 0.00 0.00 0.00 33 1013.5
20260508193605 66 274 3.5 11.3 0.00 0.00 0.00 35 1013.6
20260508193105 65 306 4.3 10.4 0.00 0.00 0.00 36 1013.7
20260508191605 65 260 6.1 12.2 0.00 0.00 0.00 33 1013.8
20260508191105 65 266 4.3 12.2 0.00 0.00 0.00 35 1013.8
20260508190605 65 298 5.2 12.2 0.00 0.00 0.00 36 1013.9
20260508190105 65 307 3.5 10.4 0.00 0.00 0.00 36 1013.9
20260508183605 66 262 3.5 8.7 0.00 0.00 0.00 34 1014.2
20260508183105 67 309 5.2 15.6 0.00 0.00 0.00 34 1014.2
20260508182606 67 271 3.5 10.4 0.00 0.00 0.00 35 1014.2
20260508181605 67 267 5.2 10.4 0.00 0.00 0.00 34 1014.2
20260508181105 67 296 6.1 14.8 0.00 0.00 0.00 34 1014.3
20260508180606 66 284 5.2 17.4 0.00 0.00 0.00 34 1014.4
20260508180105 66 299 5.2 12.2 0.00 0.00 0.00 36 1014.5
20260508174606 65 306 1.7 6.1 0.00 0.00 0.00 39 1014.8